Year,Month,Day,Hour,Minute,Value (Times are PST for windspeed in km/hr)
2014,08,19,00,00,3.90
2014,08,19,00,01,1.50
2014,08,19,00,02,1.80
2014,08,19,00,03,2.10
2014,08,19,00,04,1.30
2014,08,19,00,05,0.60
2014,08,19,00,06,1.60
2014,08,19,00,07,2.90
2014,08,19,00,08,1.20
2014,08,19,00,09,1.60
2014,08,19,00,10,0.30
2014,08,19,00,11,2.10
2014,08,19,00,12,1.50
2014,08,19,00,13,1.10
2014,08,19,00,14,0.90
2014,08,19,00,15,1.40
2014,08,19,00,16,0.30
2014,08,19,00,17,0.00
2014,08,19,00,18,0.00
2014,08,19,00,19,0.00
2014,08,19,00,20,0.00
2014,08,19,00,21,0.00
2014,08,19,00,22,0.70
2014,08,19,00,23,1.80
2014,08,19,00,24,1.90
2014,08,19,00,25,0.40
2014,08,19,00,26,0.00
2014,08,19,00,27,0.00
2014,08,19,00,28,0.10
2014,08,19,00,29,1.30
2014,08,19,00,30,1.40
2014,08,19,00,31,0.10
2014,08,19,00,32,0.40
2014,08,19,00,33,0.10
2014,08,19,00,34,0.00
2014,08,19,00,35,0.00
2014,08,19,00,36,0.00
2014,08,19,00,37,0.00
2014,08,19,00,38,0.00
2014,08,19,00,39,0.00
2014,08,19,00,40,0.60
2014,08,19,00,41,0.80
2014,08,19,00,42,0.10
2014,08,19,00,43,0.20
2014,08,19,00,44,0.20
2014,08,19,00,45,0.00
2014,08,19,00,46,0.30
2014,08,19,00,47,0.00
2014,08,19,00,48,1.10
2014,08,19,00,49,1.50
2014,08,19,00,50,1.00
2014,08,19,00,51,1.20
2014,08,19,00,52,2.60
2014,08,19,00,53,1.60
2014,08,19,00,54,0.30
2014,08,19,00,55,0.00
2014,08,19,00,56,0.20
2014,08,19,00,57,0.00
2014,08,19,00,58,0.30
2014,08,19,00,59,0.60
2014,08,19,01,00,0.00
2014,08,19,01,01,0.00
2014,08,19,01,02,0.90
2014,08,19,01,03,0.00
2014,08,19,01,04,0.20
2014,08,19,01,05,0.00
2014,08,19,01,06,0.90
2014,08,19,01,07,1.60
2014,08,19,01,08,1.70
2014,08,19,01,09,2.10
2014,08,19,01,10,2.10
2014,08,19,01,11,1.60
2014,08,19,01,12,1.60
2014,08,19,01,13,1.60
2014,08,19,01,14,1.60
2014,08,19,01,15,1.10
2014,08,19,01,16,1.40
2014,08,19,01,17,1.90
2014,08,19,01,18,2.30
2014,08,19,01,19,1.60
2014,08,19,01,20,1.60
2014,08,19,01,21,0.60
2014,08,19,01,22,0.00
2014,08,19,01,23,0.20
2014,08,19,01,24,0.10
2014,08,19,01,25,0.00
2014,08,19,01,26,1.60
2014,08,19,01,27,2.30
2014,08,19,01,28,4.30
2014,08,19,01,29,4.80
2014,08,19,01,30,4.10
2014,08,19,01,31,4.80
2014,08,19,01,32,4.80
2014,08,19,01,33,4.50
2014,08,19,01,34,4.60
2014,08,19,01,35,3.00
2014,08,19,01,36,2.60
2014,08,19,01,37,1.50
2014,08,19,01,38,0.00
2014,08,19,01,39,0.00
2014,08,19,01,40,0.00
2014,08,19,01,41,0.00
2014,08,19,01,42,0.00
2014,08,19,01,43,0.00
2014,08,19,01,44,0.90
2014,08,19,01,45,0.40
2014,08,19,01,46,0.00
2014,08,19,01,47,0.00
2014,08,19,01,48,0.00
2014,08,19,01,49,0.00
2014,08,19,01,50,0.00
2014,08,19,01,51,0.00
2014,08,19,01,52,0.00
2014,08,19,01,53,0.00
2014,08,19,01,54,0.10
2014,08,19,01,55,0.00
2014,08,19,01,56,0.00
2014,08,19,01,57,0.00
2014,08,19,01,58,0.00
2014,08,19,01,59,0.00
2014,08,19,02,00,0.50
2014,08,19,02,01,1.60
2014,08,19,02,02,1.70
2014,08,19,02,03,3.20
2014,08,19,02,04,3.20
2014,08,19,02,05,3.20
2014,08,19,02,06,1.70
2014,08,19,02,07,2.20
2014,08,19,02,08,1.50
2014,08,19,02,09,0.00
2014,08,19,02,10,0.90
2014,08,19,02,11,3.80
2014,08,19,02,12,3.20
2014,08,19,02,13,3.70
2014,08,19,02,14,6.40
2014,08,19,02,15,5.90
2014,08,19,02,16,5.90
2014,08,19,02,17,7.50
2014,08,19,02,18,7.70
2014,08,19,02,19,6.40
2014,08,19,02,20,5.30
2014,08,19,02,21,2.60
2014,08,19,02,22,5.10
2014,08,19,02,23,6.50
2014,08,19,02,24,4.50
2014,08,19,02,25,2.10
2014,08,19,02,26,4.10
2014,08,19,02,27,4.30
2014,08,19,02,28,3.80
2014,08,19,02,29,4.00
2014,08,19,02,30,4.30
2014,08,19,02,31,3.20
2014,08,19,02,32,3.90
2014,08,19,02,33,2.70
2014,08,19,02,34,1.40
2014,08,19,02,35,2.40
2014,08,19,02,36,2.00
2014,08,19,02,37,1.60
2014,08,19,02,38,0.90
2014,08,19,02,39,0.20
2014,08,19,02,40,0.20
2014,08,19,02,41,0.80
2014,08,19,02,42,1.50
2014,08,19,02,43,1.80
2014,08,19,02,44,1.30
2014,08,19,02,45,0.00
2014,08,19,02,46,0.00
2014,08,19,02,47,0.00
2014,08,19,02,48,0.00
2014,08,19,02,49,0.00
2014,08,19,02,50,0.00
2014,08,19,02,51,0.00
2014,08,19,02,52,0.00
2014,08,19,02,53,0.00
2014,08,19,02,54,0.00
2014,08,19,02,55,0.00
2014,08,19,02,56,0.00
2014,08,19,02,57,0.00
2014,08,19,02,58,0.00
2014,08,19,02,59,0.00
2014,08,19,03,00,0.00
2014,08,19,03,01,0.00
2014,08,19,03,02,0.00
2014,08,19,03,03,0.60
2014,08,19,03,04,2.00
2014,08,19,03,05,1.60
2014,08,19,03,06,1.60
2014,08,19,03,07,2.80
2014,08,19,03,08,2.10
2014,08,19,03,09,0.50
2014,08,19,03,10,1.20
2014,08,19,03,11,1.00
2014,08,19,03,12,0.00
2014,08,19,03,13,0.20
2014,08,19,03,14,0.00
2014,08,19,03,15,0.70
2014,08,19,03,16,0.30
2014,08,19,03,17,1.60
2014,08,19,03,18,3.00
2014,08,19,03,19,3.50
2014,08,19,03,20,3.40
2014,08,19,03,21,3.20
2014,08,19,03,22,3.20
2014,08,19,03,23,1.50
2014,08,19,03,24,0.00
2014,08,19,03,25,0.00
2014,08,19,03,26,0.60
2014,08,19,03,27,0.00
2014,08,19,03,28,0.00
2014,08,19,03,29,0.00
2014,08,19,03,30,0.00
2014,08,19,03,31,0.00
2014,08,19,03,32,0.00
2014,08,19,03,33,0.00
2014,08,19,03,34,0.00
2014,08,19,03,35,1.50
2014,08,19,03,36,3.20
2014,08,19,03,37,3.60
2014,08,19,03,38,2.60
2014,08,19,03,39,3.00
2014,08,19,03,40,2.90
2014,08,19,03,41,1.10
2014,08,19,03,42,0.40
2014,08,19,03,43,1.60
2014,08,19,03,44,0.50
2014,08,19,03,45,0.10
2014,08,19,03,46,0.00
2014,08,19,03,47,0.00
2014,08,19,03,48,0.00
2014,08,19,03,49,0.00
2014,08,19,03,50,0.00
2014,08,19,03,51,0.00
2014,08,19,03,52,0.00
2014,08,19,03,53,2.70
2014,08,19,03,54,2.10
2014,08,19,03,55,1.60
2014,08,19,03,56,0.40
2014,08,19,03,57,0.10
2014,08,19,03,58,0.70
2014,08,19,03,59,0.40
2014,08,19,04,00,0.00
2014,08,19,04,01,0.00
2014,08,19,04,02,0.00
2014,08,19,04,03,0.10
2014,08,19,04,04,1.00
2014,08,19,04,05,0.00
2014,08,19,04,06,0.00
2014,08,19,04,07,0.00
2014,08,19,04,08,0.10
2014,08,19,04,09,0.00
2014,08,19,04,10,0.40
2014,08,19,04,11,2.30
2014,08,19,04,12,3.70
2014,08,19,04,13,4.90
2014,08,19,04,14,4.70
2014,08,19,04,15,2.40
2014,08,19,04,16,2.40
2014,08,19,04,17,1.80
2014,08,19,04,18,2.30
2014,08,19,04,19,2.40
2014,08,19,04,20,2.20
2014,08,19,04,21,1.60
2014,08,19,04,22,1.80
2014,08,19,04,23,1.80
2014,08,19,04,24,1.40
2014,08,19,04,25,1.20
2014,08,19,04,26,2.60
2014,08,19,04,27,2.40
2014,08,19,04,28,4.60
2014,08,19,04,29,3.40
2014,08,19,04,30,3.20
2014,08,19,04,31,2.80
2014,08,19,04,32,4.70
2014,08,19,04,33,4.80
2014,08,19,04,34,3.80
2014,08,19,04,35,2.30
2014,08,19,04,36,3.90
2014,08,19,04,37,2.40
2014,08,19,04,38,5.30
2014,08,19,04,39,5.80
2014,08,19,04,40,5.80
2014,08,19,04,41,4.40
2014,08,19,04,42,4.50
2014,08,19,04,43,3.90
2014,08,19,04,44,4.30
2014,08,19,04,45,3.30
2014,08,19,04,46,2.60
2014,08,19,04,47,2.20
2014,08,19,04,48,2.50
2014,08,19,04,49,0.60
2014,08,19,04,50,0.20
2014,08,19,04,51,1.50
2014,08,19,04,52,0.10
2014,08,19,04,53,0.80
2014,08,19,04,54,1.30
2014,08,19,04,55,0.50
2014,08,19,04,56,0.00
2014,08,19,04,57,0.00
2014,08,19,04,58,0.00
2014,08,19,04,59,0.10
2014,08,19,05,00,0.70
2014,08,19,05,01,1.50
2014,08,19,05,02,1.00
2014,08,19,05,03,0.80
2014,08,19,05,04,1.00
2014,08,19,05,05,0.90
2014,08,19,05,06,0.00
2014,08,19,05,07,0.00
2014,08,19,05,08,0.10
2014,08,19,05,09,0.00
2014,08,19,05,10,0.10
2014,08,19,05,11,0.00
2014,08,19,05,12,0.30
2014,08,19,05,13,1.10
2014,08,19,05,14,0.10
2014,08,19,05,15,1.40
2014,08,19,05,16,0.00
2014,08,19,05,17,0.50
2014,08,19,05,18,1.40
2014,08,19,05,19,0.00
2014,08,19,05,20,0.00
2014,08,19,05,21,0.80
2014,08,19,05,22,1.60
2014,08,19,05,23,1.10
2014,08,19,05,24,1.90
2014,08,19,05,25,1.80
2014,08,19,05,26,2.30
2014,08,19,05,27,4.10
2014,08,19,05,28,7.10
2014,08,19,05,29,8.70
2014,08,19,05,30,9.30
2014,08,19,05,31,9.70
2014,08,19,05,32,10.30
2014,08,19,05,33,9.70
2014,08,19,05,34,9.60
2014,08,19,05,35,9.40
2014,08,19,05,36,8.00
2014,08,19,05,37,8.10
2014,08,19,05,38,6.60
2014,08,19,05,39,7.20
2014,08,19,05,40,5.40
2014,08,19,05,41,5.70
2014,08,19,05,42,4.50
2014,08,19,05,43,3.20
2014,08,19,05,44,3.20
2014,08,19,05,45,2.60
2014,08,19,05,46,2.40
2014,08,19,05,47,3.00
2014,08,19,05,48,4.30
2014,08,19,05,49,5.00
2014,08,19,05,50,4.60
2014,08,19,05,51,9.20
2014,08,19,05,52,10.10
2014,08,19,05,53,10.40
2014,08,19,05,54,10.00
2014,08,19,05,55,9.40
2014,08,19,05,56,10.90
2014,08,19,05,57,8.60
2014,08,19,05,58,9.30
2014,08,19,05,59,11.90
2014,08,19,06,00,10.30
2014,08,19,06,01,11.90
2014,08,19,06,02,11.30
2014,08,19,06,03,12.00
2014,08,19,06,04,14.20
2014,08,19,06,05,13.20
2014,08,19,06,06,13.40
2014,08,19,06,07,12.80
2014,08,19,06,08,12.80
2014,08,19,06,09,10.80
2014,08,19,06,10,5.90
2014,08,19,06,11,1.90
2014,08,19,06,12,2.30
2014,08,19,06,13,0.70
2014,08,19,06,14,2.30
2014,08,19,06,15,1.10
2014,08,19,06,16,0.20
2014,08,19,06,17,1.20
2014,08,19,06,18,0.00
2014,08,19,06,19,0.50
2014,08,19,06,20,0.10
2014,08,19,06,21,0.00
2014,08,19,06,22,0.00
2014,08,19,06,23,0.00
2014,08,19,06,24,0.00
2014,08,19,06,25,0.60
2014,08,19,06,26,0.80
2014,08,19,06,27,1.90
2014,08,19,06,28,2.30
2014,08,19,06,29,3.00
2014,08,19,06,30,1.80
2014,08,19,06,31,2.40
2014,08,19,06,32,2.50
2014,08,19,06,33,1.50
2014,08,19,06,34,1.40
2014,08,19,06,35,0.80
2014,08,19,06,36,0.00
2014,08,19,06,37,0.00
2014,08,19,06,38,2.10
2014,08,19,06,39,3.20
2014,08,19,06,40,2.60
2014,08,19,06,41,2.20
2014,08,19,06,42,1.90
2014,08,19,06,43,1.70
2014,08,19,06,44,0.60
2014,08,19,06,45,0.00
2014,08,19,06,46,0.00
2014,08,19,06,47,0.00
2014,08,19,06,48,0.10
2014,08,19,06,49,0.00
2014,08,19,06,50,0.00
2014,08,19,06,51,0.00
2014,08,19,06,52,0.10
2014,08,19,06,53,1.60
2014,08,19,06,54,1.60
2014,08,19,06,55,0.40
2014,08,19,06,56,0.10
2014,08,19,06,57,0.20
2014,08,19,06,58,1.40
2014,08,19,06,59,1.40
2014,08,19,07,00,1.50
2014,08,19,07,01,1.10
2014,08,19,07,02,1.20
2014,08,19,07,03,0.00
2014,08,19,07,04,0.40
2014,08,19,07,05,0.30
2014,08,19,07,06,0.20
2014,08,19,07,07,0.00
2014,08,19,07,08,0.30
2014,08,19,07,09,4.00
2014,08,19,07,10,0.00
2014,08,19,07,11,0.00
2014,08,19,07,12,0.20
2014,08,19,07,13,0.00
2014,08,19,07,14,0.00
2014,08,19,07,15,0.00
2014,08,19,07,16,0.00
2014,08,19,07,17,0.00
2014,08,19,07,18,0.00
2014,08,19,07,19,0.00
2014,08,19,07,20,0.00
2014,08,19,07,21,0.00
2014,08,19,07,22,0.70
2014,08,19,07,23,4.40
2014,08,19,07,24,3.80
2014,08,19,07,25,2.20
2014,08,19,07,26,0.10
2014,08,19,07,27,0.60
2014,08,19,07,28,0.90
2014,08,19,07,29,2.20
2014,08,19,07,30,3.70
2014,08,19,07,31,2.80
2014,08,19,07,32,3.90
2014,08,19,07,33,2.80
2014,08,19,07,34,3.00
2014,08,19,07,35,2.60
2014,08,19,07,36,3.60
2014,08,19,07,37,0.00
2014,08,19,07,38,0.20
2014,08,19,07,39,1.30
2014,08,19,07,40,0.60
2014,08,19,07,41,0.50
2014,08,19,07,42,0.20
2014,08,19,07,43,0.20
2014,08,19,07,44,2.50
2014,08,19,07,45,0.20
2014,08,19,07,46,0.30
2014,08,19,07,47,2.10
2014,08,19,07,48,0.40
2014,08,19,07,49,0.90
2014,08,19,07,50,0.10
2014,08,19,07,51,0.00
2014,08,19,07,52,0.30
2014,08,19,07,53,1.60
2014,08,19,07,54,1.30
2014,08,19,07,55,0.30
2014,08,19,07,56,0.60
2014,08,19,07,57,0.00
2014,08,19,07,58,0.90
2014,08,19,07,59,0.60
2014,08,19,08,00,0.00
2014,08,19,08,01,0.00
2014,08,19,08,02,0.10
2014,08,19,08,03,1.40
2014,08,19,08,04,4.40
2014,08,19,08,05,3.30
2014,08,19,08,06,2.10
2014,08,19,08,07,2.30
2014,08,19,08,08,2.00
2014,08,19,08,09,3.70
2014,08,19,08,10,1.00
2014,08,19,08,11,3.40
2014,08,19,08,12,1.50
2014,08,19,08,13,1.50
2014,08,19,08,14,2.70
2014,08,19,08,15,3.80
2014,08,19,08,16,1.60
2014,08,19,08,17,2.60
2014,08,19,08,18,6.10
2014,08,19,08,19,3.20
2014,08,19,08,20,2.10
2014,08,19,08,21,1.30
2014,08,19,08,22,1.60
2014,08,19,08,23,1.30
2014,08,19,08,24,4.30
2014,08,19,08,25,1.80
2014,08,19,08,26,2.40
2014,08,19,08,27,6.20
2014,08,19,08,28,4.70
2014,08,19,08,29,5.90
2014,08,19,08,30,4.90
2014,08,19,08,31,6.80
2014,08,19,08,32,2.50
2014,08,19,08,33,2.50
2014,08,19,08,34,1.40
2014,08,19,08,35,2.50
2014,08,19,08,36,1.10
2014,08,19,08,37,0.80
2014,08,19,08,38,2.30
2014,08,19,08,39,1.00
2014,08,19,08,40,1.00
2014,08,19,08,41,1.70
2014,08,19,08,42,1.90
2014,08,19,08,43,0.80
2014,08,19,08,44,0.10
2014,08,19,08,45,0.00
2014,08,19,08,46,2.50
2014,08,19,08,47,1.30
2014,08,19,08,48,1.60
2014,08,19,08,49,1.70
2014,08,19,08,50,1.70
2014,08,19,08,51,2.70
2014,08,19,08,52,1.90
2014,08,19,08,53,0.00
2014,08,19,08,54,0.00
2014,08,19,08,55,0.20
2014,08,19,08,56,0.80
2014,08,19,08,57,0.30
2014,08,19,08,58,0.00
2014,08,19,08,59,0.10
2014,08,19,09,00,0.40
2014,08,19,09,01,0.20
2014,08,19,09,02,0.90
2014,08,19,09,03,0.20
2014,08,19,09,04,0.00
2014,08,19,09,05,3.00
2014,08,19,09,06,2.60
2014,08,19,09,07,1.90
2014,08,19,09,08,0.20
2014,08,19,09,09,0.10
2014,08,19,09,10,0.00
2014,08,19,09,11,0.70
2014,08,19,09,12,0.10
2014,08,19,09,13,0.00
2014,08,19,09,14,0.10
2014,08,19,09,15,0.00
2014,08,19,09,16,1.20
2014,08,19,09,17,0.10
2014,08,19,09,18,1.00
2014,08,19,09,19,0.90
2014,08,19,09,20,0.90
2014,08,19,09,21,0.10
2014,08,19,09,22,0.20
2014,08,19,09,23,2.80
2014,08,19,09,24,4.30
2014,08,19,09,25,3.50
2014,08,19,09,26,6.00
2014,08,19,09,27,3.00
2014,08,19,09,28,5.70
2014,08,19,09,29,3.20
2014,08,19,09,30,3.10
2014,08,19,09,31,5.00
2014,08,19,09,32,4.90
2014,08,19,09,33,9.90
2014,08,19,09,34,10.50
2014,08,19,09,35,9.90
2014,08,19,09,36,5.40
2014,08,19,09,37,4.70
2014,08,19,09,38,2.00
2014,08,19,09,39,1.80
2014,08,19,09,40,0.30
2014,08,19,09,41,1.90
2014,08,19,09,42,5.20
2014,08,19,09,43,10.50
2014,08,19,09,44,3.30
2014,08,19,09,45,2.20
2014,08,19,09,46,1.00
2014,08,19,09,47,1.70
2014,08,19,09,48,10.30
2014,08,19,09,49,4.70
2014,08,19,09,50,3.40
2014,08,19,09,51,5.50
2014,08,19,09,52,9.90
2014,08,19,09,53,7.00
2014,08,19,09,54,6.60
2014,08,19,09,55,9.10
2014,08,19,09,56,3.00
2014,08,19,09,57,4.40
2014,08,19,09,58,5.90
2014,08,19,09,59,6.10
2014,08,19,10,00,11.50
2014,08,19,10,01,8.40
2014,08,19,10,02,8.50
2014,08,19,10,03,7.30
2014,08,19,10,04,3.30
2014,08,19,10,05,8.00
2014,08,19,10,06,8.40
2014,08,19,10,07,9.00
2014,08,19,10,08,14.30
2014,08,19,10,09,9.20
2014,08,19,10,10,5.50
2014,08,19,10,11,4.00
2014,08,19,10,12,4.30
2014,08,19,10,13,2.50
2014,08,19,10,14,1.40
2014,08,19,10,15,6.10
2014,08,19,10,16,3.90
2014,08,19,10,17,2.20
2014,08,19,10,18,2.80
2014,08,19,10,19,7.50
2014,08,19,10,20,12.40
2014,08,19,10,21,7.80
2014,08,19,10,22,10.50
2014,08,19,10,23,3.90
2014,08,19,10,24,7.50
2014,08,19,10,25,6.40
2014,08,19,10,26,6.30
2014,08,19,10,27,7.00
2014,08,19,10,28,12.00
2014,08,19,10,29,8.60
2014,08,19,10,30,11.20
2014,08,19,10,31,9.50
2014,08,19,10,32,10.70
2014,08,19,10,33,11.30
2014,08,19,10,34,13.80
2014,08,19,10,35,13.70
2014,08,19,10,36,7.90
2014,08,19,10,37,4.30
2014,08,19,10,38,8.40
2014,08,19,10,39,11.60
2014,08,19,10,40,12.00
2014,08,19,10,41,10.60
2014,08,19,10,42,10.20
2014,08,19,10,43,17.20
2014,08,19,10,44,22.50
2014,08,19,10,45,19.50
2014,08,19,10,46,10.10
2014,08,19,10,47,3.00
2014,08,19,10,48,6.20
2014,08,19,10,49,4.20
2014,08,19,10,50,7.70
2014,08,19,10,51,10.70
2014,08,19,10,52,18.00
2014,08,19,10,53,13.60
2014,08,19,10,54,15.80
2014,08,19,10,55,14.80
2014,08,19,10,56,17.70
2014,08,19,10,57,16.90
2014,08,19,10,58,15.80
2014,08,19,10,59,18.60
2014,08,19,11,00,22.90
2014,08,19,11,01,23.50
2014,08,19,11,02,15.00
2014,08,19,11,03,23.20
2014,08,19,11,04,19.80
2014,08,19,11,05,20.90
2014,08,19,11,06,20.40
2014,08,19,11,07,19.30
2014,08,19,11,08,15.20
2014,08,19,11,09,24.50
2014,08,19,11,10,15.60
2014,08,19,11,11,15.40
2014,08,19,11,12,17.00
2014,08,19,11,13,17.10
2014,08,19,11,14,25.00
2014,08,19,11,15,22.30
2014,08,19,11,16,18.50
2014,08,19,11,17,16.40
2014,08,19,11,18,14.80
2014,08,19,11,19,10.10
2014,08,19,11,20,19.10
2014,08,19,11,21,23.40
2014,08,19,11,22,24.70
2014,08,19,11,23,23.30
2014,08,19,11,24,24.10
2014,08,19,11,25,20.80
2014,08,19,11,26,22.00
2014,08,19,11,27,12.00
2014,08,19,11,28,19.80
2014,08,19,11,29,17.30
2014,08,19,11,30,17.50
2014,08,19,11,31,16.20
2014,08,19,11,32,16.70
2014,08,19,11,33,12.80
2014,08,19,11,34,15.30
2014,08,19,11,35,20.50
2014,08,19,11,36,10.20
2014,08,19,11,37,9.40
2014,08,19,11,38,10.80
2014,08,19,11,39,15.90
2014,08,19,11,40,16.30
2014,08,19,11,41,17.80
2014,08,19,11,42,20.20
2014,08,19,11,43,19.20
2014,08,19,11,44,12.80
2014,08,19,11,45,19.20
2014,08,19,11,46,16.30
2014,08,19,11,47,15.80
2014,08,19,11,48,18.50
2014,08,19,11,49,15.00
2014,08,19,11,50,9.70
2014,08,19,11,51,10.60
2014,08,19,11,52,18.00
2014,08,19,11,53,11.30
2014,08,19,11,54,9.80
2014,08,19,11,55,9.00
2014,08,19,11,56,14.50
2014,08,19,11,57,10.00
2014,08,19,11,58,11.60
2014,08,19,11,59,14.90
2014,08,19,12,00,8.10
2014,08,19,12,01,11.10
2014,08,19,12,02,9.10
2014,08,19,12,03,12.00
2014,08,19,12,04,13.90
2014,08,19,12,05,18.60
2014,08,19,12,06,9.60
2014,08,19,12,07,19.20
2014,08,19,12,08,13.00
2014,08,19,12,09,17.50
2014,08,19,12,10,13.50
2014,08,19,12,11,14.40
2014,08,19,12,12,20.60
2014,08,19,12,13,19.90
2014,08,19,12,14,18.30
2014,08,19,12,15,10.90
2014,08,19,12,16,14.70
2014,08,19,12,17,12.50
2014,08,19,12,18,11.40
2014,08,19,12,19,18.60
2014,08,19,12,20,16.40
2014,08,19,12,21,15.90
2014,08,19,12,22,18.70
2014,08,19,12,23,22.70
2014,08,19,12,24,15.90
2014,08,19,12,25,16.70
2014,08,19,12,26,18.40
2014,08,19,12,27,18.50
2014,08,19,12,28,18.80
2014,08,19,12,29,17.50
2014,08,19,12,30,16.30
2014,08,19,12,31,14.20
2014,08,19,12,32,11.30
2014,08,19,12,33,14.50
2014,08,19,12,34,18.10
2014,08,19,12,35,22.30
2014,08,19,12,36,18.70
2014,08,19,12,37,13.20
2014,08,19,12,38,19.80
2014,08,19,12,39,13.50
2014,08,19,12,40,13.60
2014,08,19,12,41,22.10
2014,08,19,12,42,20.00
2014,08,19,12,43,18.40
2014,08,19,12,44,21.50
2014,08,19,12,45,15.80
2014,08,19,12,46,19.00
2014,08,19,12,47,18.30
2014,08,19,12,48,17.30
2014,08,19,12,49,15.00
2014,08,19,12,50,15.30
2014,08,19,12,51,22.70
2014,08,19,12,52,25.40
2014,08,19,12,53,21.20
2014,08,19,12,54,26.10
2014,08,19,12,55,27.60
2014,08,19,12,56,26.60
2014,08,19,12,57,27.80
2014,08,19,12,58,30.00
2014,08,19,12,59,32.40
2014,08,19,13,00,32.80
2014,08,19,13,01,25.60
2014,08,19,13,02,23.20
2014,08,19,13,03,22.70
2014,08,19,13,04,24.10
2014,08,19,13,05,22.40
2014,08,19,13,06,25.30
2014,08,19,13,07,22.70
2014,08,19,13,08,24.00
2014,08,19,13,09,26.20
2014,08,19,13,10,22.40
2014,08,19,13,11,20.80
2014,08,19,13,12,22.80
2014,08,19,13,13,23.30
2014,08,19,13,14,30.90
2014,08,19,13,15,31.00
2014,08,19,13,16,19.70
2014,08,19,13,17,19.00
2014,08,19,13,18,19.90
2014,08,19,13,19,21.50
2014,08,19,13,20,25.50
2014,08,19,13,21,21.20
2014,08,19,13,22,21.40
2014,08,19,13,23,22.30
2014,08,19,13,24,27.80
2014,08,19,13,25,29.60
2014,08,19,13,26,31.50
2014,08,19,13,27,28.30
2014,08,19,13,28,34.20
2014,08,19,13,29,23.30
2014,08,19,13,30,18.00
2014,08,19,13,31,24.60
2014,08,19,13,32,29.10
2014,08,19,13,33,25.70
2014,08,19,13,34,20.30
2014,08,19,13,35,22.40
2014,08,19,13,36,20.80
2014,08,19,13,37,25.80
2014,08,19,13,38,19.90
2014,08,19,13,39,18.90
2014,08,19,13,40,21.30
2014,08,19,13,41,22.20
2014,08,19,13,42,20.70
2014,08,19,13,43,29.70
2014,08,19,13,44,22.00
2014,08,19,13,45,15.60
2014,08,19,13,46,16.60
2014,08,19,13,47,21.80
2014,08,19,13,48,19.50
2014,08,19,13,49,11.90
2014,08,19,13,50,25.50
2014,08,19,13,51,19.60
2014,08,19,13,52,21.20
2014,08,19,13,53,21.30
2014,08,19,13,54,24.60
2014,08,19,13,55,23.40
2014,08,19,13,56,17.70
2014,08,19,13,57,25.70
2014,08,19,13,58,24.80
2014,08,19,13,59,28.20
2014,08,19,14,00,26.00
2014,08,19,14,01,26.20
2014,08,19,14,02,28.50
2014,08,19,14,03,28.50
2014,08,19,14,04,25.30
2014,08,19,14,05,22.40
2014,08,19,14,06,23.30
2014,08,19,14,07,23.90
2014,08,19,14,08,26.90
2014,08,19,14,09,22.40
2014,08,19,14,10,20.60
2014,08,19,14,11,20.20
2014,08,19,14,12,14.50
2014,08,19,14,13,22.20
2014,08,19,14,14,17.50
2014,08,19,14,15,21.50
2014,08,19,14,16,23.30
2014,08,19,14,17,18.50
2014,08,19,14,18,22.30
2014,08,19,14,19,25.60
2014,08,19,14,20,22.70
2014,08,19,14,21,22.20
2014,08,19,14,22,14.60
2014,08,19,14,23,25.50
2014,08,19,14,24,19.30
2014,08,19,14,25,26.10
2014,08,19,14,26,27.70
2014,08,19,14,27,26.60
2014,08,19,14,28,19.70
2014,08,19,14,29,19.50
2014,08,19,14,30,11.30
2014,08,19,14,31,18.80
2014,08,19,14,32,26.60
2014,08,19,14,33,19.80
2014,08,19,14,34,15.10
2014,08,19,14,35,21.80
2014,08,19,14,36,27.20
2014,08,19,14,37,23.90
2014,08,19,14,38,25.10
2014,08,19,14,39,26.70
2014,08,19,14,40,27.20
2014,08,19,14,41,24.90
2014,08,19,14,42,25.40
2014,08,19,14,43,19.50
2014,08,19,14,44,25.70
2014,08,19,14,45,26.30
2014,08,19,14,46,26.90
2014,08,19,14,47,23.40
2014,08,19,14,48,28.70
2014,08,19,14,49,28.60
2014,08,19,14,50,31.60
2014,08,19,14,51,24.50
2014,08,19,14,52,22.00
2014,08,19,14,53,27.70
2014,08,19,14,54,29.70
2014,08,19,14,55,23.50
2014,08,19,14,56,24.60
2014,08,19,14,57,29.20
2014,08,19,14,58,27.20
2014,08,19,14,59,26.60
2014,08,19,15,00,24.10
2014,08,19,15,01,30.70
2014,08,19,15,02,29.40
2014,08,19,15,03,31.10
2014,08,19,15,04,27.90
2014,08,19,15,05,30.10
2014,08,19,15,06,29.60
2014,08,19,15,07,31.50
2014,08,19,15,08,31.70
2014,08,19,15,09,32.80
2014,08,19,15,10,30.00
2014,08,19,15,11,34.30
2014,08,19,15,12,31.40
2014,08,19,15,13,31.30
2014,08,19,15,14,34.50
2014,08,19,15,15,34.50
2014,08,19,15,16,31.60
2014,08,19,15,17,33.40
2014,08,19,15,18,32.40
2014,08,19,15,19,30.80
2014,08,19,15,20,35.90
2014,08,19,15,21,33.30
2014,08,19,15,22,31.30
2014,08,19,15,23,30.50
2014,08,19,15,24,35.10
2014,08,19,15,25,32.70
2014,08,19,15,26,36.20
2014,08,19,15,27,37.70
2014,08,19,15,28,39.50
2014,08,19,15,29,38.90
2014,08,19,15,30,41.00
2014,08,19,15,31,38.50
2014,08,19,15,32,39.20
2014,08,19,15,33,37.40
2014,08,19,15,34,33.50
2014,08,19,15,35,33.10
2014,08,19,15,36,34.30
2014,08,19,15,37,32.80
2014,08,19,15,38,33.20
2014,08,19,15,39,31.20
2014,08,19,15,40,32.50
2014,08,19,15,41,32.10
2014,08,19,15,42,30.60
2014,08,19,15,43,26.50
2014,08,19,15,44,32.00
2014,08,19,15,45,30.40
2014,08,19,15,46,30.70
2014,08,19,15,47,36.30
2014,08,19,15,48,30.80
2014,08,19,15,49,32.70
2014,08,19,15,50,36.80
2014,08,19,15,51,35.40
2014,08,19,15,52,32.80
2014,08,19,15,53,34.80
2014,08,19,15,54,32.30
2014,08,19,15,55,29.00
2014,08,19,15,56,31.90
2014,08,19,15,57,26.60
2014,08,19,15,58,34.90
2014,08,19,15,59,28.00
2014,08,19,16,00,32.00
2014,08,19,16,01,35.50
2014,08,19,16,02,28.30
2014,08,19,16,03,33.40
2014,08,19,16,04,31.60
2014,08,19,16,05,40.40
2014,08,19,16,06,33.10
2014,08,19,16,07,34.30
2014,08,19,16,08,33.20
2014,08,19,16,09,32.70
2014,08,19,16,10,32.60
2014,08,19,16,11,34.70
2014,08,19,16,12,39.80
2014,08,19,16,13,38.50
2014,08,19,16,14,41.40
2014,08,19,16,15,38.60
2014,08,19,16,16,32.30
2014,08,19,16,17,35.10
2014,08,19,16,18,38.90
2014,08,19,16,19,34.90
2014,08,19,16,20,29.20
2014,08,19,16,21,32.30
2014,08,19,16,22,33.90
2014,08,19,16,23,31.90
2014,08,19,16,24,26.20
2014,08,19,16,25,26.20
2014,08,19,16,26,23.60
2014,08,19,16,27,36.70
2014,08,19,16,28,32.10
2014,08,19,16,29,29.00
2014,08,19,16,30,31.00
2014,08,19,16,31,35.40
2014,08,19,16,32,26.60
2014,08,19,16,33,30.40
2014,08,19,16,34,34.90
2014,08,19,16,35,36.80
2014,08,19,16,36,39.90
2014,08,19,16,37,32.90
2014,08,19,16,38,34.20
2014,08,19,16,39,36.60
2014,08,19,16,40,33.10
2014,08,19,16,41,31.10
2014,08,19,16,42,32.10
2014,08,19,16,43,36.50
2014,08,19,16,44,33.10
2014,08,19,16,45,32.60
2014,08,19,16,46,32.30
2014,08,19,16,47,33.80
2014,08,19,16,48,37.70
2014,08,19,16,49,41.40
2014,08,19,16,50,37.50
2014,08,19,16,51,44.10
2014,08,19,16,52,39.60
2014,08,19,16,53,39.90
2014,08,19,16,54,36.40
2014,08,19,16,55,39.50
2014,08,19,16,56,41.00
2014,08,19,16,57,37.10
2014,08,19,16,58,42.40
2014,08,19,16,59,42.10
2014,08,19,17,00,37.90
2014,08,19,17,01,36.80
2014,08,19,17,02,32.60
2014,08,19,17,03,33.50
2014,08,19,17,04,41.30
2014,08,19,17,05,38.50
2014,08,19,17,06,42.20
2014,08,19,17,07,39.50
2014,08,19,17,08,39.60
2014,08,19,17,09,36.80
2014,08,19,17,10,34.80
2014,08,19,17,11,37.20
2014,08,19,17,12,40.40
2014,08,19,17,13,35.60
2014,08,19,17,14,36.50
2014,08,19,17,15,33.60
2014,08,19,17,16,36.50
2014,08,19,17,17,31.40
2014,08,19,17,18,29.60
2014,08,19,17,19,36.80
2014,08,19,17,20,34.00
2014,08,19,17,21,38.00
2014,08,19,17,22,35.90
2014,08,19,17,23,35.80
2014,08,19,17,24,38.30
2014,08,19,17,25,43.70
2014,08,19,17,26,40.00
2014,08,19,17,27,40.40
2014,08,19,17,28,34.30
2014,08,19,17,29,39.80
2014,08,19,17,30,39.60
2014,08,19,17,31,35.10
2014,08,19,17,32,37.60
2014,08,19,17,33,38.20
2014,08,19,17,34,36.70
2014,08,19,17,35,35.30
2014,08,19,17,36,33.10
2014,08,19,17,37,39.60
2014,08,19,17,38,33.80
2014,08,19,17,39,34.30
2014,08,19,17,40,40.50
2014,08,19,17,41,39.20
2014,08,19,17,42,37.40
2014,08,19,17,43,39.60
2014,08,19,17,44,37.90
2014,08,19,17,45,43.80
2014,08,19,17,46,40.50